Time,TemperatureF,DewpointF,PressureIn,WindDirection,WindDirectionDegrees,WindSpeedMPH,WindSpeedGustMPH,Humidity,HourlyPrecipIn,Conditions,Clouds,dailyrainin,SoftwareType,DateUTC
2013-03-06 00:11:00,40.1,-53.0,29.76,ESE,112,6.8,-999.0,1,-99.99,,,0.00,Acu-Link.com,2013-03-06 05:11:00,
2013-03-06 00:27:00,40.1,-53.0,29.75,SE,135,5.8,-999.0,1,-99.99,,,0.00,Acu-Link.com,2013-03-06 05:27:00,
2013-03-06 00:42:00,40.3,8.2,29.74,ESE,112,4.7,-999.0,26,-99.99,,,0.00,Acu-Link.com,2013-03-06 05:42:00,
2013-03-06 01:12:00,40.3,37.9,29.73,ESE,112,4.2,-999.0,91,-99.99,,,0.00,Acu-Link.com,2013-03-06 06:12:00,
2013-03-06 01:27:00,40.1,39.6,29.74,East,90,4.7,-999.0,98,-99.99,,,0.02,Acu-Link.com,2013-03-06 06:27:00,
2013-03-06 01:42:00,40.3,39.8,29.73,East,90,7.8,-999.0,98,-99.99,,,0.03,Acu-Link.com,2013-03-06 06:42:00,
2013-03-06 01:57:00,41.4,40.9,29.71,ESE,112,10.4,-999.0,98,-99.99,,,0.05,Acu-Link.com,2013-03-06 06:57:00,
2013-03-06 02:12:00,41.2,40.7,29.70,ESE,112,8.9,-999.0,98,-99.99,,,0.08,Acu-Link.com,2013-03-06 07:12:00,
2013-03-06 02:28:00,40.6,40.1,29.69,ESE,112,5.3,-999.0,98,-99.99,,,0.09,Acu-Link.com,2013-03-06 07:28:00,
2013-03-06 02:43:00,40.3,39.8,29.68,East,90,6.8,-999.0,98,-99.99,,,0.10,Acu-Link.com,2013-03-06 07:43:00,
2013-03-06 02:58:00,40.5,40.0,29.67,East,90,6.3,-999.0,98,-99.99,,,0.11,Acu-Link.com,2013-03-06 07:58:00,
2013-03-06 03:13:00,40.5,40.0,29.65,ESE,112,5.3,-999.0,98,-99.99,,,0.13,Acu-Link.com,2013-03-06 08:13:00,
2013-03-06 03:29:00,40.5,40.0,29.63,ESE,112,7.3,-999.0,98,-99.99,,,0.15,Acu-Link.com,2013-03-06 08:29:00,
2013-03-06 03:44:00,40.3,39.8,29.63,SE,135,10.4,-999.0,98,-99.99,,,0.20,Acu-Link.com,2013-03-06 08:44:00,
2013-03-06 03:59:00,40.3,39.8,29.61,ESE,112,10.9,-999.0,98,-99.99,,,0.24,Acu-Link.com,2013-03-06 08:59:00,
2013-03-06 04:23:00,40.5,40.0,29.60,ESE,112,5.3,-999.0,98,-99.99,,,0.26,Acu-Link.com,2013-03-06 09:23:00,
2013-03-06 04:38:00,40.8,40.3,29.58,ESE,112,8.9,-999.0,98,-99.99,,,0.27,Acu-Link.com,2013-03-06 09:38:00,
2013-03-06 04:53:00,40.8,40.3,29.56,East,90,7.3,-999.0,98,-99.99,,,0.27,Acu-Link.com,2013-03-06 09:53:00,
2013-03-06 05:08:00,41.0,40.5,29.59,East,90,6.3,-999.0,98,-99.99,,,0.27,Acu-Link.com,2013-03-06 10:08:00,
2013-03-06 05:23:00,41.5,41.0,29.58,ESE,112,8.9,-999.0,98,-99.99,,,0.28,Acu-Link.com,2013-03-06 10:23:00,
2013-03-06 05:39:00,41.2,40.7,29.56,East,90,6.3,-999.0,98,-99.99,,,0.31,Acu-Link.com,2013-03-06 10:39:00,
2013-03-06 05:54:00,41.2,40.7,29.56,ESE,112,8.9,-999.0,98,-99.99,,,0.32,Acu-Link.com,2013-03-06 10:54:00,
2013-03-06 06:09:00,41.7,41.2,29.56,ESE,112,8.3,-999.0,98,-99.99,,,0.33,Acu-Link.com,2013-03-06 11:09:00,
2013-03-06 06:24:00,41.7,41.2,29.55,NE,45,7.3,-999.0,98,-99.99,,,0.33,Acu-Link.com,2013-03-06 11:24:00,
2013-03-06 06:39:00,41.9,41.4,29.54,East,90,6.8,-999.0,98,-99.99,,,0.34,Acu-Link.com,2013-03-06 11:39:00,
2013-03-06 06:55:00,42.3,41.8,29.54,ENE,67,6.8,-999.0,98,-99.99,,,0.34,Acu-Link.com,2013-03-06 11:55:00,
2013-03-06 07:10:00,42.3,41.8,29.53,East,90,11.4,-999.0,98,-99.99,,,0.34,Acu-Link.com,2013-03-06 12:10:00,
2013-03-06 07:25:00,42.3,41.8,29.53,NE,45,7.3,-999.0,98,-99.99,,,0.39,Acu-Link.com,2013-03-06 12:25:00,
2013-03-06 07:40:00,42.6,42.1,29.51,East,90,6.8,-999.0,98,-99.99,,,0.39,Acu-Link.com,2013-03-06 12:40:00,
2013-03-06 07:55:00,42.6,42.1,29.50,ENE,67,13.0,-999.0,98,-99.99,,,0.41,Acu-Link.com,2013-03-06 12:55:00,
2013-03-06 08:10:00,43.0,42.5,29.48,ESE,112,5.3,-999.0,98,-99.99,,,0.43,Acu-Link.com,2013-03-06 13:10:00,
2013-03-06 08:25:00,43.2,42.7,29.48,ESE,112,4.7,-999.0,98,-99.99,,,0.45,Acu-Link.com,2013-03-06 13:25:00,
2013-03-06 08:41:00,43.3,42.8,29.47,ENE,67,5.8,-999.0,98,-99.99,,,0.46,Acu-Link.com,2013-03-06 13:41:00,
2013-03-06 08:56:00,43.5,43.0,29.45,ENE,67,7.3,-999.0,98,-99.99,,,0.46,Acu-Link.com,2013-03-06 13:56:00,
2013-03-06 09:11:00,43.9,43.4,29.44,ENE,67,9.4,-999.0,98,-99.99,,,0.46,Acu-Link.com,2013-03-06 14:11:00,
2013-03-06 09:26:00,43.9,43.4,29.41,ESE,112,8.9,-999.0,98,-99.99,,,0.47,Acu-Link.com,2013-03-06 14:26:00,
2013-03-06 09:41:00,43.7,43.2,29.40,NNE,22,8.3,-999.0,98,-99.99,,,0.50,Acu-Link.com,2013-03-06 14:41:00,
2013-03-06 09:56:00,43.9,43.4,29.39,NE,45,9.9,-999.0,98,-99.99,,,0.52,Acu-Link.com,2013-03-06 14:56:00,
2013-03-06 10:11:00,44.2,43.7,29.39,NE,45,8.3,-999.0,98,-99.99,,,0.53,Acu-Link.com,2013-03-06 15:11:00,
2013-03-06 10:26:00,44.4,43.9,29.38,ESE,112,7.3,-999.0,98,-99.99,,,0.53,Acu-Link.com,2013-03-06 15:26:00,
2013-03-06 10:41:00,44.4,43.9,29.38,East,90,7.3,-999.0,98,-99.99,,,0.53,Acu-Link.com,2013-03-06 15:41:00,
2013-03-06 10:56:00,44.4,43.9,29.38,NE,45,9.4,-999.0,98,-99.99,,,0.53,Acu-Link.com,2013-03-06 15:56:00,
2013-03-06 11:11:00,44.2,43.7,29.38,NNW,337,13.0,-999.0,98,-99.99,,,0.53,Acu-Link.com,2013-03-06 16:11:00,
2013-03-06 11:26:00,43.2,42.7,29.37,NE,45,23.3,-999.0,98,-99.99,,,0.59,Acu-Link.com,2013-03-06 16:26:00,
2013-03-06 11:41:00,43.2,42.7,29.36,NE,45,16.1,-999.0,98,-99.99,,,0.62,Acu-Link.com,2013-03-06 16:41:00,
2013-03-06 11:56:00,42.8,42.3,29.35,East,90,18.6,-999.0,98,-99.99,,,0.65,Acu-Link.com,2013-03-06 16:56:00,
2013-03-06 12:12:00,42.8,42.3,29.35,NE,45,23.8,-999.0,98,-99.99,,,0.67,Acu-Link.com,2013-03-06 17:12:00,
2013-03-06 12:27:00,42.4,41.9,29.34,ENE,67,18.1,-999.0,98,-99.99,,,0.75,Acu-Link.com,2013-03-06 17:27:00,
2013-03-06 12:42:00,42.4,41.9,29.34,NE,45,24.8,-999.0,98,-99.99,,,0.78,Acu-Link.com,2013-03-06 17:42:00,
2013-03-06 12:57:00,42.1,41.6,29.33,NE,45,24.8,-999.0,98,-99.99,,,0.83,Acu-Link.com,2013-03-06 17:57:00,
2013-03-06 13:12:00,42.1,41.6,29.33,NE,45,22.2,-999.0,98,-99.99,,,0.89,Acu-Link.com,2013-03-06 18:12:00,
2013-03-06 13:27:00,42.1,41.6,29.34,NE,45,13.0,-999.0,98,-99.99,,,0.93,Acu-Link.com,2013-03-06 18:27:00,
2013-03-06 13:42:00,41.7,41.2,29.35,ENE,67,25.8,-999.0,98,-99.99,,,1.02,Acu-Link.com,2013-03-06 18:42:00,
2013-03-06 13:57:00,41.5,41.0,29.35,NE,45,22.2,-999.0,98,-99.99,,,1.08,Acu-Link.com,2013-03-06 18:57:00,
2013-03-06 14:12:00,41.4,40.9,29.35,NE,45,19.7,-999.0,98,-99.99,,,1.12,Acu-Link.com,2013-03-06 19:12:00,
2013-03-06 14:27:00,41.2,40.7,29.35,NE,45,30.0,-999.0,98,-99.99,,,1.16,Acu-Link.com,2013-03-06 19:27:00,
2013-03-06 14:43:00,41.2,40.7,29.37,NNE,22,20.7,-999.0,98,-99.99,,,1.22,Acu-Link.com,2013-03-06 19:43:00,
2013-03-06 14:58:00,41.2,40.7,29.38,NE,45,24.8,-999.0,98,-99.99,,,1.23,Acu-Link.com,2013-03-06 19:58:00,
2013-03-06 15:14:00,41.0,40.5,29.39,NE,45,24.3,-999.0,98,-99.99,,,1.27,Acu-Link.com,2013-03-06 20:14:00,
2013-03-06 15:30:00,42.3,41.8,29.40,NE,45,33.0,-999.0,98,-99.99,,,1.36,Acu-Link.com,2013-03-06 20:30:00,
2013-03-06 15:46:00,41.5,41.0,29.40,ENE,67,22.2,-999.0,98,-99.99,,,1.40,Acu-Link.com,2013-03-06 20:46:00,
2013-03-06 16:01:00,40.6,40.1,29.42,NE,45,28.4,-999.0,98,-99.99,,,1.43,Acu-Link.com,2013-03-06 21:01:00,
2013-03-06 16:16:00,40.5,40.0,29.44,NE,45,25.3,-999.0,98,-99.99,,,1.43,Acu-Link.com,2013-03-06 21:16:00,
2013-03-06 16:32:00,40.1,39.6,29.45,NE,45,18.6,-999.0,98,-99.99,,,1.45,Acu-Link.com,2013-03-06 21:32:00,
2013-03-06 16:47:00,39.7,39.2,29.48,NNE,22,18.6,-999.0,98,-99.99,,,1.46,Acu-Link.com,2013-03-06 21:47:00,
2013-03-06 17:02:00,39.9,39.4,29.48,NE,45,22.7,-999.0,98,-99.99,,,1.46,Acu-Link.com,2013-03-06 22:02:00,
2013-03-06 17:17:00,39.6,39.1,29.50,NE,45,20.2,-999.0,98,-99.99,,,1.47,Acu-Link.com,2013-03-06 22:17:00,
2013-03-06 17:32:00,39.4,38.9,29.52,NNE,22,11.9,-999.0,98,-99.99,,,1.48,Acu-Link.com,2013-03-06 22:32:00,
2013-03-06 17:47:00,39.0,38.5,29.53,NNE,22,16.6,-999.0,98,-99.99,,,1.49,Acu-Link.com,2013-03-06 22:47:00,
2013-03-06 18:02:00,38.7,38.2,29.55,NNW,337,20.2,-999.0,98,-99.99,,,1.49,Acu-Link.com,2013-03-06 23:02:00,
2013-03-06 18:17:00,39.0,38.5,29.55,NNE,22,21.2,-999.0,98,-99.99,,,1.50,Acu-Link.com,2013-03-06 23:17:00,
2013-03-06 18:32:00,38.5,38.0,29.58,NW,315,14.5,-999.0,98,-99.99,,,1.51,Acu-Link.com,2013-03-06 23:32:00,
2013-03-06 18:48:00,37.9,37.4,29.59,NNE,22,16.6,-999.0,98,-99.99,,,1.55,Acu-Link.com,2013-03-06 23:48:00,
2013-03-06 19:03:00,37.0,36.5,29.61,North,0,14.5,-999.0,98,-99.99,,,1.59,Acu-Link.com,2013-03-07 00:03:00,
2013-03-06 19:18:00,36.3,35.8,29.62,NNE,22,16.1,-999.0,98,-99.99,,,1.63,Acu-Link.com,2013-03-07 00:18:00,
2013-03-06 19:33:00,36.9,36.4,29.61,NNW,337,18.1,-999.0,98,-99.99,,,1.67,Acu-Link.com,2013-03-07 00:33:00,
2013-03-06 19:48:00,36.9,36.4,29.63,East,90,18.6,-999.0,98,-99.99,,,1.74,Acu-Link.com,2013-03-07 00:48:00,
2013-03-06 20:03:00,37.0,36.5,29.64,NNE,22,14.0,-999.0,98,-99.99,,,1.77,Acu-Link.com,2013-03-07 01:03:00,
2013-03-06 20:18:00,37.8,37.3,29.64,NNW,337,11.9,-999.0,98,-99.99,,,1.79,Acu-Link.com,2013-03-07 01:18:00,
2013-03-06 20:33:00,38.3,37.8,29.64,NNE,22,15.5,-999.0,98,-99.99,,,1.80,Acu-Link.com,2013-03-07 01:33:00,
2013-03-06 20:48:00,39.6,39.1,29.65,NNE,22,18.6,-999.0,98,-99.99,,,1.82,Acu-Link.com,2013-03-07 01:48:00,
2013-03-06 21:04:00,38.5,38.0,29.67,NW,315,17.1,-999.0,98,-99.99,,,1.83,Acu-Link.com,2013-03-07 02:04:00,
2013-03-06 21:19:00,38.1,37.6,29.67,North,0,19.7,-999.0,98,-99.99,,,1.84,Acu-Link.com,2013-03-07 02:19:00,
2013-03-06 21:34:00,38.1,37.6,29.68,NW,315,18.6,-999.0,98,-99.99,,,1.86,Acu-Link.com,2013-03-07 02:34:00,
2013-03-06 21:49:00,38.3,37.8,29.68,NNE,22,13.0,-999.0,98,-99.99,,,1.89,Acu-Link.com,2013-03-07 02:49:00,
2013-03-06 22:04:00,38.1,37.6,29.69,NNW,337,16.1,-999.0,98,-99.99,,,1.89,Acu-Link.com,2013-03-07 03:04:00,
2013-03-06 22:19:00,37.2,36.7,29.70,North,0,15.0,-999.0,98,-99.99,,,1.90,Acu-Link.com,2013-03-07 03:19:00,
2013-03-06 22:34:00,37.2,36.7,29.70,North,0,15.0,-999.0,98,-99.99,,,1.91,Acu-Link.com,2013-03-07 03:34:00,
2013-03-06 22:49:00,37.2,36.7,29.71,NNE,22,17.6,-999.0,98,-99.99,,,1.95,Acu-Link.com,2013-03-07 03:49:00,
2013-03-06 23:04:00,37.2,36.7,29.72,NNW,337,14.0,-999.0,98,-99.99,,,1.96,Acu-Link.com,2013-03-07 04:04:00,
2013-03-06 23:20:00,37.2,36.7,29.73,North,0,16.1,-999.0,98,-99.99,,,1.98,Acu-Link.com,2013-03-07 04:20:00,
2013-03-06 23:35:00,37.4,36.9,29.72,NNW,337,12.5,-999.0,98,-99.99,,,1.99,Acu-Link.com,2013-03-07 04:35:00,
2013-03-06 23:50:00,37.2,36.7,29.72,NNW,337,10.9,-999.0,98,-99.99,,,2.03,Acu-Link.com,2013-03-07 04:50:00,